Year,Month,Day,Hour,Minute,Value (Times are PST for temperature in C)
2006,09,03,00,00,15.70
2006,09,03,00,01,15.70
2006,09,03,00,02,15.70
2006,09,03,00,03,15.70
2006,09,03,00,04,15.70
2006,09,03,00,05,15.70
2006,09,03,00,06,15.70
2006,09,03,00,07,15.60
2006,09,03,00,08,15.60
2006,09,03,00,09,15.60
2006,09,03,00,10,15.60
2006,09,03,00,11,15.50
2006,09,03,00,12,15.50
2006,09,03,00,13,15.50
2006,09,03,00,14,15.50
2006,09,03,00,15,15.50
2006,09,03,00,16,15.40
2006,09,03,00,17,15.40
2006,09,03,00,18,15.40
2006,09,03,00,19,15.40
2006,09,03,00,20,15.40
2006,09,03,00,21,15.40
2006,09,03,00,22,15.40
2006,09,03,00,23,15.50
2006,09,03,00,24,15.50
2006,09,03,00,25,15.50
2006,09,03,00,26,15.50
2006,09,03,00,27,15.50
2006,09,03,00,28,15.50
2006,09,03,00,29,15.50
2006,09,03,00,30,15.50
2006,09,03,00,31,15.50
2006,09,03,00,32,15.50
2006,09,03,00,33,15.50
2006,09,03,00,34,15.50
2006,09,03,00,35,15.50
2006,09,03,00,36,15.50
2006,09,03,00,37,15.50
2006,09,03,00,38,15.50
2006,09,03,00,39,15.50
2006,09,03,00,40,15.50
2006,09,03,00,41,15.40
2006,09,03,00,42,15.40
2006,09,03,00,43,15.40
2006,09,03,00,44,15.40
2006,09,03,00,45,15.40
2006,09,03,00,46,15.40
2006,09,03,00,47,15.50
2006,09,03,00,48,15.50
2006,09,03,00,49,15.50
2006,09,03,00,50,15.50
2006,09,03,00,51,15.50
2006,09,03,00,52,15.50
2006,09,03,00,53,15.50
2006,09,03,00,54,15.50
2006,09,03,00,55,15.50
2006,09,03,00,56,15.50
2006,09,03,00,57,15.50
2006,09,03,00,58,15.50
2006,09,03,00,59,15.50
2006,09,03,01,00,15.50
2006,09,03,01,01,15.50
2006,09,03,01,02,15.60
2006,09,03,01,03,15.60
2006,09,03,01,04,15.60
2006,09,03,01,05,15.70
2006,09,03,01,06,15.70
2006,09,03,01,07,15.70
2006,09,03,01,08,15.70
2006,09,03,01,09,15.70
2006,09,03,01,10,15.70
2006,09,03,01,11,15.70
2006,09,03,01,12,15.70
2006,09,03,01,13,15.60
2006,09,03,01,14,15.60
2006,09,03,01,15,15.60
2006,09,03,01,16,15.60
2006,09,03,01,17,15.50
2006,09,03,01,18,15.50
2006,09,03,01,19,15.50
2006,09,03,01,20,15.40
2006,09,03,01,21,15.40
2006,09,03,01,22,15.30
2006,09,03,01,23,15.30
2006,09,03,01,24,15.30
2006,09,03,01,25,15.30
2006,09,03,01,26,15.20
2006,09,03,01,27,15.20
2006,09,03,01,28,15.20
2006,09,03,01,29,15.10
2006,09,03,01,30,15.10
2006,09,03,01,31,15.00
2006,09,03,01,32,15.00
2006,09,03,01,33,15.00
2006,09,03,01,34,14.90
2006,09,03,01,35,14.90
2006,09,03,01,36,14.90
2006,09,03,01,37,14.90
2006,09,03,01,38,14.90
2006,09,03,01,39,14.90
2006,09,03,01,40,14.80
2006,09,03,01,41,14.80
2006,09,03,01,42,14.80
2006,09,03,01,43,14.80
2006,09,03,01,44,14.80
2006,09,03,01,45,14.70
2006,09,03,01,46,14.70
2006,09,03,01,47,14.70
2006,09,03,01,48,14.60
2006,09,03,01,49,14.60
2006,09,03,01,50,14.60
2006,09,03,01,51,14.60
2006,09,03,01,52,14.60
2006,09,03,01,53,14.50
2006,09,03,01,54,14.50
2006,09,03,01,55,14.50
2006,09,03,01,56,14.50
2006,09,03,01,57,14.50
2006,09,03,01,58,14.50
2006,09,03,01,59,14.50
2006,09,03,02,00,14.50
2006,09,03,02,01,14.50
2006,09,03,02,02,14.50
2006,09,03,02,03,14.50
2006,09,03,02,04,14.50
2006,09,03,02,05,14.50
2006,09,03,02,06,14.50
2006,09,03,02,07,14.50
2006,09,03,02,08,14.50
2006,09,03,02,09,14.40
2006,09,03,02,10,14.40
2006,09,03,02,11,14.40
2006,09,03,02,12,14.30
2006,09,03,02,13,14.30
2006,09,03,02,14,14.20
2006,09,03,02,15,14.20
2006,09,03,02,16,14.20
2006,09,03,02,17,14.20
2006,09,03,02,18,14.10
2006,09,03,02,19,14.10
2006,09,03,02,20,14.10
2006,09,03,02,21,14.10
2006,09,03,02,22,14.00
2006,09,03,02,23,14.00
2006,09,03,02,24,14.00
2006,09,03,02,25,14.00
2006,09,03,02,26,14.00
2006,09,03,02,27,14.00
2006,09,03,02,28,14.00
2006,09,03,02,29,14.00
2006,09,03,02,30,14.00
2006,09,03,02,31,13.90
2006,09,03,02,32,13.90
2006,09,03,02,33,13.90
2006,09,03,02,34,13.90
2006,09,03,02,35,13.90
2006,09,03,02,36,13.90
2006,09,03,02,37,13.90
2006,09,03,02,38,13.90
2006,09,03,02,39,13.90
2006,09,03,02,40,13.80
2006,09,03,02,41,13.80
2006,09,03,02,42,13.80
2006,09,03,02,43,13.80
2006,09,03,02,44,13.70
2006,09,03,02,45,13.70
2006,09,03,02,46,13.70
2006,09,03,02,47,13.70
2006,09,03,02,48,13.70
2006,09,03,02,49,13.70
2006,09,03,02,50,13.70
2006,09,03,02,51,13.70
2006,09,03,02,52,13.70
2006,09,03,02,53,13.70
2006,09,03,02,54,13.70
2006,09,03,02,55,13.70
2006,09,03,02,56,13.70
2006,09,03,02,57,13.70
2006,09,03,02,58,13.70
2006,09,03,02,59,13.60
2006,09,03,03,00,13.60
2006,09,03,03,01,13.60
2006,09,03,03,02,13.60
2006,09,03,03,03,13.50
2006,09,03,03,04,13.50
2006,09,03,03,05,13.50
2006,09,03,03,06,13.50
2006,09,03,03,07,13.50
2006,09,03,03,08,13.50
2006,09,03,03,09,13.50
2006,09,03,03,10,13.50
2006,09,03,03,11,13.50
2006,09,03,03,12,13.50
2006,09,03,03,13,13.50
2006,09,03,03,14,13.40
2006,09,03,03,15,13.40
2006,09,03,03,16,13.40
2006,09,03,03,17,13.40
2006,09,03,03,18,13.40
2006,09,03,03,19,13.40
2006,09,03,03,20,13.40
2006,09,03,03,21,13.40
2006,09,03,03,22,13.40
2006,09,03,03,23,13.30
2006,09,03,03,24,13.30
2006,09,03,03,25,13.30
2006,09,03,03,26,13.30
2006,09,03,03,27,13.30
2006,09,03,03,28,13.30
2006,09,03,03,29,13.30
2006,09,03,03,30,13.30
2006,09,03,03,31,13.30
2006,09,03,03,32,13.30
2006,09,03,03,33,13.30
2006,09,03,03,34,13.30
2006,09,03,03,35,13.30
2006,09,03,03,36,13.30
2006,09,03,03,37,13.30
2006,09,03,03,38,13.30
2006,09,03,03,39,13.30
2006,09,03,03,40,13.30
2006,09,03,03,41,13.30
2006,09,03,03,42,13.30
2006,09,03,03,43,13.30
2006,09,03,03,44,13.20
2006,09,03,03,45,13.20
2006,09,03,03,46,13.20
2006,09,03,03,47,13.10
2006,09,03,03,48,13.10
2006,09,03,03,49,13.00
2006,09,03,03,50,13.00
2006,09,03,03,51,13.00
2006,09,03,03,52,12.90
2006,09,03,03,53,12.90
2006,09,03,03,54,12.90
2006,09,03,03,55,12.90
2006,09,03,03,56,12.80
2006,09,03,03,57,12.80
2006,09,03,03,58,12.80
2006,09,03,03,59,12.80
2006,09,03,04,00,12.80
2006,09,03,04,01,12.80
2006,09,03,04,02,12.80
2006,09,03,04,03,12.80
2006,09,03,04,04,12.80
2006,09,03,04,05,12.80
2006,09,03,04,06,12.70
2006,09,03,04,07,12.70
2006,09,03,04,08,12.70
2006,09,03,04,09,12.70
2006,09,03,04,10,12.70
2006,09,03,04,11,12.70
2006,09,03,04,12,12.70
2006,09,03,04,13,12.70
2006,09,03,04,14,12.60
2006,09,03,04,15,12.60
2006,09,03,04,16,12.60
2006,09,03,04,17,12.60
2006,09,03,04,18,12.60
2006,09,03,04,19,12.60
2006,09,03,04,20,12.60
2006,09,03,04,21,12.60
2006,09,03,04,22,12.60
2006,09,03,04,23,12.60
2006,09,03,04,24,12.60
2006,09,03,04,25,12.60
2006,09,03,04,26,12.60
2006,09,03,04,27,12.50
2006,09,03,04,28,12.50
2006,09,03,04,29,12.50
2006,09,03,04,30,12.50
2006,09,03,04,31,12.50
2006,09,03,04,32,12.50
2006,09,03,04,33,12.50
2006,09,03,04,34,12.50
2006,09,03,04,35,12.50
2006,09,03,04,36,12.50
2006,09,03,04,37,12.60
2006,09,03,04,38,12.60
2006,09,03,04,39,12.60
2006,09,03,04,40,12.70
2006,09,03,04,41,12.70
2006,09,03,04,42,12.70
2006,09,03,04,43,12.70
2006,09,03,04,44,12.70
2006,09,03,04,45,12.70
2006,09,03,04,46,12.70
2006,09,03,04,47,12.70
2006,09,03,04,48,12.70
2006,09,03,04,49,12.70
2006,09,03,04,50,12.80
2006,09,03,04,51,12.80
2006,09,03,04,52,12.80
2006,09,03,04,53,12.80
2006,09,03,04,54,12.80
2006,09,03,04,55,12.80
2006,09,03,04,56,12.80
2006,09,03,04,57,12.80
2006,09,03,04,58,12.80
2006,09,03,04,59,12.80
2006,09,03,05,00,12.80
2006,09,03,05,01,12.80
2006,09,03,05,02,12.80
2006,09,03,05,03,12.80
2006,09,03,05,04,12.80
2006,09,03,05,05,12.80
2006,09,03,05,06,12.80
2006,09,03,05,07,12.70
2006,09,03,05,08,12.70
2006,09,03,05,09,12.70
2006,09,03,05,10,12.70
2006,09,03,05,11,12.70
2006,09,03,05,12,12.60
2006,09,03,05,13,12.60
2006,09,03,05,14,12.50
2006,09,03,05,15,12.50
2006,09,03,05,16,12.50
2006,09,03,05,17,12.50
2006,09,03,05,18,12.40
2006,09,03,05,19,12.40
2006,09,03,05,20,12.30
2006,09,03,05,21,12.30
2006,09,03,05,22,12.30
2006,09,03,05,23,12.30
2006,09,03,05,24,12.30
2006,09,03,05,25,12.30
2006,09,03,05,26,12.20
2006,09,03,05,27,12.20
2006,09,03,05,28,12.20
2006,09,03,05,29,12.20
2006,09,03,05,30,12.20
2006,09,03,05,31,12.10
2006,09,03,05,32,12.10
2006,09,03,05,33,12.10
2006,09,03,05,34,12.10
2006,09,03,05,35,12.10
2006,09,03,05,36,12.10
2006,09,03,05,37,12.10
2006,09,03,05,38,12.10
2006,09,03,05,39,12.10
2006,09,03,05,40,12.10
2006,09,03,05,41,12.10
2006,09,03,05,42,12.00
2006,09,03,05,43,12.00
2006,09,03,05,44,12.00
2006,09,03,05,45,12.00
2006,09,03,05,46,12.00
2006,09,03,05,47,12.00
2006,09,03,05,48,11.90
2006,09,03,05,49,11.90
2006,09,03,05,50,11.90
2006,09,03,05,51,11.90
2006,09,03,05,52,11.90
2006,09,03,05,53,11.90
2006,09,03,05,54,11.90
2006,09,03,05,55,11.90
2006,09,03,05,56,11.90
2006,09,03,05,57,11.90
2006,09,03,05,58,11.90
2006,09,03,05,59,11.80
2006,09,03,06,00,11.80
2006,09,03,06,01,11.80
2006,09,03,06,02,11.80
2006,09,03,06,03,11.80
2006,09,03,06,04,11.80
2006,09,03,06,05,11.80
2006,09,03,06,06,11.80
2006,09,03,06,07,11.80
2006,09,03,06,08,11.80
2006,09,03,06,09,11.80
2006,09,03,06,10,11.80
2006,09,03,06,11,11.80
2006,09,03,06,12,11.80
2006,09,03,06,13,11.80
2006,09,03,06,14,11.80
2006,09,03,06,15,11.80
2006,09,03,06,16,11.80
2006,09,03,06,17,11.70
2006,09,03,06,18,11.70
2006,09,03,06,19,11.70
2006,09,03,06,20,11.60
2006,09,03,06,21,11.60
2006,09,03,06,22,11.60
2006,09,03,06,23,11.60
2006,09,03,06,24,11.60
2006,09,03,06,25,11.60
2006,09,03,06,26,11.60
2006,09,03,06,27,11.50
2006,09,03,06,28,11.40
2006,09,03,06,29,11.40
2006,09,03,06,30,11.40
2006,09,03,06,31,11.40
2006,09,03,06,32,11.40
2006,09,03,06,33,11.40
2006,09,03,06,34,11.40
2006,09,03,06,35,11.40
2006,09,03,06,36,11.40
2006,09,03,06,37,11.40
2006,09,03,06,38,11.40
2006,09,03,06,39,11.40
2006,09,03,06,40,11.40
2006,09,03,06,41,11.50
2006,09,03,06,42,11.60
2006,09,03,06,43,11.60
2006,09,03,06,44,11.60
2006,09,03,06,45,11.60
2006,09,03,06,46,11.70
2006,09,03,06,47,11.70
2006,09,03,06,48,11.80
2006,09,03,06,49,11.80
2006,09,03,06,50,11.80
2006,09,03,06,51,11.80
2006,09,03,06,52,11.80
2006,09,03,06,53,11.80
2006,09,03,06,54,11.80
2006,09,03,06,55,11.70
2006,09,03,06,56,11.70
2006,09,03,06,57,11.70
2006,09,03,06,58,11.70
2006,09,03,06,59,11.70
2006,09,03,07,00,11.70
2006,09,03,07,01,11.70
2006,09,03,07,02,11.70
2006,09,03,07,03,11.60
2006,09,03,07,04,11.60
2006,09,03,07,05,11.60
2006,09,03,07,06,11.60
2006,09,03,07,07,11.60
2006,09,03,07,08,11.60
2006,09,03,07,09,11.60
2006,09,03,07,10,11.60
2006,09,03,07,11,11.60
2006,09,03,07,12,11.60
2006,09,03,07,13,11.60
2006,09,03,07,14,11.60
2006,09,03,07,15,11.60
2006,09,03,07,16,11.60
2006,09,03,07,17,11.70
2006,09,03,07,18,11.70
2006,09,03,07,19,11.70
2006,09,03,07,20,11.70
2006,09,03,07,21,11.70
2006,09,03,07,22,11.70
2006,09,03,07,23,11.70
2006,09,03,07,24,11.70
2006,09,03,07,25,11.70
2006,09,03,07,26,11.70
2006,09,03,07,27,11.70
2006,09,03,07,28,11.80
2006,09,03,07,29,11.80
2006,09,03,07,30,11.80
2006,09,03,07,31,11.80
2006,09,03,07,32,11.80
2006,09,03,07,33,11.80
2006,09,03,07,34,11.80
2006,09,03,07,35,11.80
2006,09,03,07,36,11.90
2006,09,03,07,37,11.90
2006,09,03,07,38,12.00
2006,09,03,07,39,12.00
2006,09,03,07,40,12.00
2006,09,03,07,41,12.10
2006,09,03,07,42,12.10
2006,09,03,07,43,12.20
2006,09,03,07,44,12.20
2006,09,03,07,45,12.20
2006,09,03,07,46,12.30
2006,09,03,07,47,12.30
2006,09,03,07,48,12.40
2006,09,03,07,49,12.40
2006,09,03,07,50,12.50
2006,09,03,07,51,12.50
2006,09,03,07,52,12.60
2006,09,03,07,53,12.60
2006,09,03,07,54,12.70
2006,09,03,07,55,12.70
2006,09,03,07,56,12.80
2006,09,03,07,57,12.80
2006,09,03,07,58,12.80
2006,09,03,07,59,12.80
2006,09,03,08,00,12.90
2006,09,03,08,01,12.90
2006,09,03,08,02,13.00
2006,09,03,08,03,13.00
2006,09,03,08,04,13.10
2006,09,03,08,05,13.10
2006,09,03,08,06,13.20
2006,09,03,08,07,13.30
2006,09,03,08,08,13.30
2006,09,03,08,09,13.40
2006,09,03,08,10,13.50
2006,09,03,08,11,13.50
2006,09,03,08,12,13.60
2006,09,03,08,13,13.70
2006,09,03,08,14,13.70
2006,09,03,08,15,13.80
2006,09,03,08,16,13.80
2006,09,03,08,17,13.90
2006,09,03,08,18,14.00
2006,09,03,08,19,14.00
2006,09,03,08,20,14.10
2006,09,03,08,21,14.20
2006,09,03,08,22,14.20
2006,09,03,08,23,14.20
2006,09,03,08,24,14.30
2006,09,03,08,25,14.30
2006,09,03,08,26,14.40
2006,09,03,08,27,14.50
2006,09,03,08,28,14.50
2006,09,03,08,29,14.60
2006,09,03,08,30,14.60
2006,09,03,08,31,14.70
2006,09,03,08,32,14.80
2006,09,03,08,33,14.80
2006,09,03,08,34,14.90
2006,09,03,08,35,15.00
2006,09,03,08,36,15.10
2006,09,03,08,37,15.20
2006,09,03,08,38,15.20
2006,09,03,08,39,15.30
2006,09,03,08,40,15.30
2006,09,03,08,41,15.30
2006,09,03,08,42,15.40
2006,09,03,08,43,15.50
2006,09,03,08,44,15.50
2006,09,03,08,45,15.60
2006,09,03,08,46,15.70
2006,09,03,08,47,15.70
2006,09,03,08,48,15.80
2006,09,03,08,49,15.80
2006,09,03,08,50,15.90
2006,09,03,08,51,15.90
2006,09,03,08,52,16.00
2006,09,03,08,53,16.10
2006,09,03,08,54,16.10
2006,09,03,08,55,16.10
2006,09,03,08,56,16.20
2006,09,03,08,57,16.20
2006,09,03,08,58,16.20
2006,09,03,08,59,16.30
2006,09,03,09,00,16.30
2006,09,03,09,01,16.40
2006,09,03,09,02,16.40
2006,09,03,09,03,16.50
2006,09,03,09,04,16.70
2006,09,03,09,05,16.70
2006,09,03,09,06,16.80
2006,09,03,09,07,16.90
2006,09,03,09,08,17.00
2006,09,03,09,09,17.10
2006,09,03,09,10,17.10
2006,09,03,09,11,17.20
2006,09,03,09,12,17.30
2006,09,03,09,13,17.40
2006,09,03,09,14,17.60
2006,09,03,09,15,17.70
2006,09,03,09,16,17.90
2006,09,03,09,17,18.00
2006,09,03,09,18,18.10
2006,09,03,09,19,18.20
2006,09,03,09,20,18.40
2006,09,03,09,21,18.50
2006,09,03,09,22,18.70
2006,09,03,09,23,18.80
2006,09,03,09,24,19.00
2006,09,03,09,25,19.10
2006,09,03,09,26,19.20
2006,09,03,09,27,19.40
2006,09,03,09,28,19.50
2006,09,03,09,29,19.60
2006,09,03,09,30,19.80
2006,09,03,09,31,19.90
2006,09,03,09,32,20.00
2006,09,03,09,33,20.20
2006,09,03,09,34,20.30
2006,09,03,09,35,20.50
2006,09,03,09,36,20.60
2006,09,03,09,37,20.60
2006,09,03,09,38,20.70
2006,09,03,09,39,20.80
2006,09,03,09,40,20.80
2006,09,03,09,41,20.80
2006,09,03,09,42,20.80
2006,09,03,09,43,20.90
2006,09,03,09,44,20.90
2006,09,03,09,45,21.00
2006,09,03,09,46,21.10
2006,09,03,09,47,21.20
2006,09,03,09,48,21.30
2006,09,03,09,49,21.30
2006,09,03,09,50,21.50
2006,09,03,09,51,21.60
2006,09,03,09,52,21.60
2006,09,03,09,53,21.60
2006,09,03,09,54,21.70
2006,09,03,09,55,21.80
2006,09,03,09,56,21.90
2006,09,03,09,57,21.90
2006,09,03,09,58,21.90
2006,09,03,09,59,22.00
2006,09,03,10,00,22.00
2006,09,03,10,01,22.10
2006,09,03,10,02,22.10
2006,09,03,10,03,22.20
2006,09,03,10,04,22.20
2006,09,03,10,05,22.20
2006,09,03,10,06,22.30
2006,09,03,10,07,22.30
2006,09,03,10,08,22.40
2006,09,03,10,09,22.40
2006,09,03,10,10,22.50
2006,09,03,10,11,22.50
2006,09,03,10,12,22.60
2006,09,03,10,13,22.60
2006,09,03,10,14,22.70
2006,09,03,10,15,22.80
2006,09,03,10,16,22.90
2006,09,03,10,17,22.90
2006,09,03,10,18,22.90
2006,09,03,10,19,23.00
2006,09,03,10,20,23.10
2006,09,03,10,21,23.20
2006,09,03,10,22,23.20
2006,09,03,10,23,23.30
2006,09,03,10,24,23.30
2006,09,03,10,25,23.30
2006,09,03,10,26,23.30
2006,09,03,10,27,23.30
2006,09,03,10,28,23.30
2006,09,03,10,29,23.30
2006,09,03,10,30,23.30
2006,09,03,10,31,23.40
2006,09,03,10,32,23.40
2006,09,03,10,33,23.50
2006,09,03,10,34,23.60
2006,09,03,10,35,23.70
2006,09,03,10,36,23.70
2006,09,03,10,37,23.60
2006,09,03,10,38,23.50
2006,09,03,10,39,23.40
2006,09,03,10,40,23.30
2006,09,03,10,41,23.30
2006,09,03,10,42,23.30
2006,09,03,10,43,23.40
2006,09,03,10,44,23.50
2006,09,03,10,45,23.60
2006,09,03,10,46,23.60
2006,09,03,10,47,23.60
2006,09,03,10,48,23.60
2006,09,03,10,49,23.50
2006,09,03,10,50,23.30
2006,09,03,10,51,23.30
2006,09,03,10,52,23.20
2006,09,03,10,53,23.20
2006,09,03,10,54,23.10
2006,09,03,10,55,23.10
2006,09,03,10,56,23.10
2006,09,03,10,57,23.20
2006,09,03,10,58,23.20
2006,09,03,10,59,23.30
2006,09,03,11,00,23.40
2006,09,03,11,01,23.40
2006,09,03,11,02,23.40
2006,09,03,11,03,23.30
2006,09,03,11,04,23.20
2006,09,03,11,05,23.10
2006,09,03,11,06,23.10
2006,09,03,11,07,23.00
2006,09,03,11,08,22.90
2006,09,03,11,09,22.90
2006,09,03,11,10,22.90
2006,09,03,11,11,22.90
2006,09,03,11,12,22.90
2006,09,03,11,13,23.00
2006,09,03,11,14,23.10
2006,09,03,11,15,23.10
2006,09,03,11,16,23.10
2006,09,03,11,17,23.00
2006,09,03,11,18,22.90
2006,09,03,11,19,22.90
2006,09,03,11,20,22.90
2006,09,03,11,21,22.90
2006,09,03,11,22,22.90
2006,09,03,11,23,23.00
2006,09,03,11,24,23.10
2006,09,03,11,25,23.20
2006,09,03,11,26,23.30
2006,09,03,11,27,23.30
2006,09,03,11,28,23.40
2006,09,03,11,29,23.40
2006,09,03,11,30,23.30
2006,09,03,11,31,23.20
2006,09,03,11,32,23.20
2006,09,03,11,33,23.20
2006,09,03,11,34,23.30
2006,09,03,11,35,23.40
2006,09,03,11,36,23.40
2006,09,03,11,37,23.40
2006,09,03,11,38,23.50
2006,09,03,11,39,23.50
2006,09,03,11,40,23.60
2006,09,03,11,41,23.60
2006,09,03,11,42,23.70
2006,09,03,11,43,23.70
2006,09,03,11,44,23.70
2006,09,03,11,45,23.70
2006,09,03,11,46,23.70
2006,09,03,11,47,23.70
2006,09,03,11,48,23.70
2006,09,03,11,49,23.70
2006,09,03,11,50,23.70
2006,09,03,11,51,23.70
2006,09,03,11,52,23.70
2006,09,03,11,53,23.70
2006,09,03,11,54,23.70
2006,09,03,11,55,23.70
2006,09,03,11,56,23.60
2006,09,03,11,57,23.50
2006,09,03,11,58,23.30
2006,09,03,11,59,23.30
2006,09,03,12,00,23.20
2006,09,03,12,01,23.10
2006,09,03,12,02,23.20
2006,09,03,12,03,23.20
2006,09,03,12,04,23.20
2006,09,03,12,05,23.30
2006,09,03,12,06,23.30
2006,09,03,12,07,23.30
2006,09,03,12,08,23.30
2006,09,03,12,09,23.40
2006,09,03,12,10,23.30
2006,09,03,12,11,23.30
2006,09,03,12,12,23.30
2006,09,03,12,13,23.30
2006,09,03,12,14,23.30
2006,09,03,12,15,23.30
2006,09,03,12,16,23.30
2006,09,03,12,17,23.30
2006,09,03,12,18,23.30
2006,09,03,12,19,23.30
2006,09,03,12,20,23.30
2006,09,03,12,21,23.30
2006,09,03,12,22,23.30
2006,09,03,12,23,23.30
2006,09,03,12,24,23.20
2006,09,03,12,25,23.20
2006,09,03,12,26,23.20
2006,09,03,12,27,23.20
2006,09,03,12,28,23.20
2006,09,03,12,29,23.30
2006,09,03,12,30,23.40
2006,09,03,12,31,23.50
2006,09,03,12,32,23.60
2006,09,03,12,33,23.80
2006,09,03,12,34,23.90
2006,09,03,12,35,24.00
2006,09,03,12,36,24.10
2006,09,03,12,37,24.10
2006,09,03,12,38,24.10
2006,09,03,12,39,24.10
2006,09,03,12,40,24.10
2006,09,03,12,41,23.90
2006,09,03,12,42,23.70
2006,09,03,12,43,23.60
2006,09,03,12,44,23.40
2006,09,03,12,45,23.40
2006,09,03,12,46,23.50
2006,09,03,12,47,23.60
2006,09,03,12,48,23.70
2006,09,03,12,49,23.70
2006,09,03,12,50,23.70
2006,09,03,12,51,23.80
2006,09,03,12,52,23.90
2006,09,03,12,53,24.00
2006,09,03,12,54,24.00
2006,09,03,12,55,23.90
2006,09,03,12,56,23.90
2006,09,03,12,57,23.80
2006,09,03,12,58,23.80
2006,09,03,12,59,23.70
2006,09,03,13,00,23.70
2006,09,03,13,01,23.70
2006,09,03,13,02,23.70
2006,09,03,13,03,23.70
2006,09,03,13,04,23.80
2006,09,03,13,05,23.90
2006,09,03,13,06,24.00
2006,09,03,13,07,24.10
2006,09,03,13,08,24.10
2006,09,03,13,09,24.00
2006,09,03,13,10,23.90
2006,09,03,13,11,23.70
2006,09,03,13,12,23.70
2006,09,03,13,13,23.70
2006,09,03,13,14,23.50
2006,09,03,13,15,23.30
2006,09,03,13,16,23.30
2006,09,03,13,17,23.30
2006,09,03,13,18,23.30
2006,09,03,13,19,23.30
2006,09,03,13,20,23.20
2006,09,03,13,21,23.10
2006,09,03,13,22,23.00
2006,09,03,13,23,22.90
2006,09,03,13,24,22.90
2006,09,03,13,25,22.90
2006,09,03,13,26,22.90
2006,09,03,13,27,23.00
2006,09,03,13,28,23.10
2006,09,03,13,29,23.30
2006,09,03,13,30,23.40
2006,09,03,13,31,23.50
2006,09,03,13,32,23.60
2006,09,03,13,33,23.70
2006,09,03,13,34,23.70
2006,09,03,13,35,23.70
2006,09,03,13,36,23.70
2006,09,03,13,37,23.70
2006,09,03,13,38,23.70
2006,09,03,13,39,23.70
2006,09,03,13,40,23.70
2006,09,03,13,41,23.70
2006,09,03,13,42,23.70
2006,09,03,13,43,23.70
2006,09,03,13,44,23.70
2006,09,03,13,45,23.70
2006,09,03,13,46,23.80
2006,09,03,13,47,23.90
2006,09,03,13,48,24.00
2006,09,03,13,49,24.10
2006,09,03,13,50,24.30
2006,09,03,13,51,24.40
2006,09,03,13,52,24.50
2006,09,03,13,53,24.60
2006,09,03,13,54,24.70
2006,09,03,13,55,24.60
2006,09,03,13,56,24.50
2006,09,03,13,57,24.40
2006,09,03,13,58,24.30
2006,09,03,13,59,24.20
2006,09,03,14,00,24.10
2006,09,03,14,01,24.10
2006,09,03,14,02,24.10
2006,09,03,14,03,24.10
2006,09,03,14,04,24.00
2006,09,03,14,05,23.90
2006,09,03,14,06,23.90
2006,09,03,14,07,23.90
2006,09,03,14,08,24.00
2006,09,03,14,09,24.20
2006,09,03,14,10,24.30
2006,09,03,14,11,24.40
2006,09,03,14,12,24.40
2006,09,03,14,13,24.50
2006,09,03,14,14,24.50
2006,09,03,14,15,24.60
2006,09,03,14,16,24.50
2006,09,03,14,17,24.50
2006,09,03,14,18,24.60
2006,09,03,14,19,24.60
2006,09,03,14,20,24.60
2006,09,03,14,21,24.70
2006,09,03,14,22,24.70
2006,09,03,14,23,24.80
2006,09,03,14,24,24.80
2006,09,03,14,25,24.80
2006,09,03,14,26,24.70
2006,09,03,14,27,24.60
2006,09,03,14,28,24.60
2006,09,03,14,29,24.60
2006,09,03,14,30,24.60
2006,09,03,14,31,24.60
2006,09,03,14,32,24.50
2006,09,03,14,33,24.50
2006,09,03,14,34,24.40
2006,09,03,14,35,24.30
2006,09,03,14,36,24.30
2006,09,03,14,37,24.30
2006,09,03,14,38,24.30
2006,09,03,14,39,24.30
2006,09,03,14,40,24.30
2006,09,03,14,41,24.30
2006,09,03,14,42,24.30
2006,09,03,14,43,24.20
2006,09,03,14,44,24.30
2006,09,03,14,45,24.20
2006,09,03,14,46,24.20
2006,09,03,14,47,24.20
2006,09,03,14,48,24.10
2006,09,03,14,49,24.10
2006,09,03,14,50,24.10
2006,09,03,14,51,24.10
2006,09,03,14,52,24.10
2006,09,03,14,53,24.10
2006,09,03,14,54,24.10
2006,09,03,14,55,24.10
2006,09,03,14,56,24.10
2006,09,03,14,57,24.10
2006,09,03,14,58,24.20
2006,09,03,14,59,24.30
2006,09,03,15,00,24.40
2006,09,03,15,01,24.50
2006,09,03,15,02,24.70
2006,09,03,15,03,24.80
2006,09,03,15,04,24.90
2006,09,03,15,05,25.10
2006,09,03,15,06,25.20
2006,09,03,15,07,25.20
2006,09,03,15,08,25.20
2006,09,03,15,09,25.20
2006,09,03,15,10,25.20
2006,09,03,15,11,25.30
2006,09,03,15,12,25.30
2006,09,03,15,13,25.30
2006,09,03,15,14,25.40
2006,09,03,15,15,25.50
2006,09,03,15,16,25.50
2006,09,03,15,17,25.50
2006,09,03,15,18,25.60
2006,09,03,15,19,25.60
2006,09,03,15,20,25.60
2006,09,03,15,21,25.50
2006,09,03,15,22,25.30
2006,09,03,15,23,25.30
2006,09,03,15,24,25.30
2006,09,03,15,25,25.30
2006,09,03,15,26,25.30
2006,09,03,15,27,25.20
2006,09,03,15,28,25.20
2006,09,03,15,29,25.10
2006,09,03,15,30,25.10
2006,09,03,15,31,24.90
2006,09,03,15,32,24.80
2006,09,03,15,33,24.80
2006,09,03,15,34,24.70
2006,09,03,15,35,24.60
2006,09,03,15,36,24.60
2006,09,03,15,37,24.60
2006,09,03,15,38,24.60
2006,09,03,15,39,24.60
2006,09,03,15,40,24.60
2006,09,03,15,41,24.60
2006,09,03,15,42,24.60
2006,09,03,15,43,24.60
2006,09,03,15,44,24.60
2006,09,03,15,45,24.60
2006,09,03,15,46,24.60
2006,09,03,15,47,24.60
2006,09,03,15,48,24.60
2006,09,03,15,49,24.80
2006,09,03,15,50,24.90
2006,09,03,15,51,25.00
2006,09,03,15,52,25.10
2006,09,03,15,53,25.20
2006,09,03,15,54,25.30
2006,09,03,15,55,25.40
2006,09,03,15,56,25.50
2006,09,03,15,57,25.50
2006,09,03,15,58,25.50
2006,09,03,15,59,25.50
2006,09,03,16,00,25.50
2006,09,03,16,01,25.60
2006,09,03,16,02,25.60
2006,09,03,16,03,25.60
2006,09,03,16,04,25.60
2006,09,03,16,05,25.60
2006,09,03,16,06,25.50
2006,09,03,16,07,25.50
2006,09,03,16,08,25.50
2006,09,03,16,09,25.60
2006,09,03,16,10,25.60
2006,09,03,16,11,25.60
2006,09,03,16,12,25.60
2006,09,03,16,13,25.70
2006,09,03,16,14,25.80
2006,09,03,16,15,25.80
2006,09,03,16,16,25.90
2006,09,03,16,17,25.90
2006,09,03,16,18,25.90
2006,09,03,16,19,26.00
2006,09,03,16,20,26.00
2006,09,03,16,21,26.10
2006,09,03,16,22,26.10
2006,09,03,16,23,26.20
2006,09,03,16,24,26.30
2006,09,03,16,25,26.30
2006,09,03,16,26,26.30
2006,09,03,16,27,26.30
2006,09,03,16,28,26.40
2006,09,03,16,29,26.40
2006,09,03,16,30,26.40
2006,09,03,16,31,26.40
2006,09,03,16,32,26.40
2006,09,03,16,33,26.40
2006,09,03,16,34,26.40
2006,09,03,16,35,26.30
2006,09,03,16,36,26.30
2006,09,03,16,37,26.30
2006,09,03,16,38,26.30
2006,09,03,16,39,26.30
2006,09,03,16,40,26.40
2006,09,03,16,41,26.40
2006,09,03,16,42,26.50
2006,09,03,16,43,26.60
2006,09,03,16,44,26.60
2006,09,03,16,45,26.60
2006,09,03,16,46,26.70
2006,09,03,16,47,26.70
2006,09,03,16,48,26.80
2006,09,03,16,49,26.90
2006,09,03,16,50,26.90
2006,09,03,16,51,27.00
2006,09,03,16,52,27.10
2006,09,03,16,53,27.20
2006,09,03,16,54,27.20
2006,09,03,16,55,27.20
2006,09,03,16,56,27.30
2006,09,03,16,57,27.30
2006,09,03,16,58,27.30
2006,09,03,16,59,27.30
2006,09,03,17,00,27.40
2006,09,03,17,01,27.40
2006,09,03,17,02,27.40
2006,09,03,17,03,27.40
2006,09,03,17,04,27.30
2006,09,03,17,05,27.30
2006,09,03,17,06,27.30
2006,09,03,17,07,27.40
2006,09,03,17,08,27.40
2006,09,03,17,09,27.50
2006,09,03,17,10,27.60
2006,09,03,17,11,27.70
2006,09,03,17,12,27.70
2006,09,03,17,13,27.80
2006,09,03,17,14,27.90
2006,09,03,17,15,27.90
2006,09,03,17,16,28.00
2006,09,03,17,17,28.10
2006,09,03,17,18,28.10
2006,09,03,17,19,28.10